GW0870 Weather Reports


time (UTC)temp
C
wind
direction
speed
KPH
gust
KPH
rain 1hr
cm
rain 24hr
cm
rain mn
cm
humidity
%
barometer
mb
20260502184544 15 0 1.6 6.4 0.00 0.00 0.00 51 1012.6
20260502183049 14 0 1.6 6.4 0.00 0.00 0.00 51 1012.5
20260502181546 15 41 0.0 8.0 0.00 0.00 0.00 51 1012.6
20260502163105 14 321 1.6 12.9 0.00 0.00 0.00 58 1013.5
20260502161613 13 54 1.6 9.7 0.00 0.00 0.00 63 1013.9
20260502151549 12 0 0.0 1.6 0.00 0.00 0.00 73 1014.7
20260502130105 12 346 0.0 6.4 0.00 0.00 0.00 75 1013.3
20260502123112 12 0 0.0 3.2 0.00 0.00 0.00 74 1013.6
20260502121545 12 0 0.0 11.3 0.00 0.00 0.00 74 1012.5
20260502114550 12 0 0.0 8.0 0.00 0.00 0.00 74 1012.8
20260502113052 12 0 0.0 8.0 0.00 0.00 0.00 76 1012.7
20260502111545 12 0 0.0 4.8 0.00 0.00 0.00 76 1012.3
20260502110051 12 0 0.0 4.8 0.00 0.00 0.00 77 1012.1
20260502104550 12 30 0.0 6.4 0.00 0.00 0.00 78 1012.1
20260502103048 12 0 0.0 1.6 0.00 0.00 0.00 81 1011.8
20260502101548 12 36 0.0 6.4 0.00 0.00 0.00 82 1012.2
20260502080104 11 0 0.0 1.6 0.00 0.00 0.00 87 1012.6
20260502070057 11 0 0.0 0.0 0.00 0.00 0.00 89 1011.5
20260502064551 11 0 0.0 0.0 0.00 0.00 0.00 89 1011.5
20260502063045 11 0 0.0 0.0 0.00 0.00 0.00 88 1011.6
20260502061543 11 0 0.0 0.0 0.00 0.00 0.00 88 1011.9
20260502060051 11 0 0.0 0.0 0.00 0.00 0.00 88 1012.1
20260502054551 11 0 0.0 0.0 0.00 0.00 0.00 88 1012.3
20260502053053 11 0 0.0 0.0 0.00 0.00 0.00 88 1012.5
20260502051558 11 0 0.0 0.0 0.00 0.00 0.00 88 1012.5
20260502050046 11 0 0.0 0.0 0.00 0.00 0.00 87 1012.6
20260502044552 11 0 0.0 0.0 0.00 0.00 0.00 87 1012.7
20260502043044 11 0 0.0 0.0 0.00 0.00 0.00 86 1012.7
20260502041549 11 0 0.0 0.0 0.00 0.00 0.00 86 1012.8
20260502040049 11 0 0.0 0.0 0.00 0.00 0.00 86 1012.8
20260502034544 11 0 0.0 0.0 0.00 0.00 0.00 84 1012.9
20260502033042 11 0 0.0 0.0 0.00 0.00 0.00 84 1013.0
20260502031549 12 0 0.0 0.0 0.00 0.00 0.00 82 1013.0
20260502030050 12 0 0.0 0.0 0.00 0.00 0.00 82 1013.1
20260502024544 12 0 0.0 0.0 0.00 0.00 0.00 81 1013.2
20260502023050 12 0 0.0 0.0 0.00 0.00 0.00 81 1013.3
20260502021552 12 0 0.0 0.0 0.00 0.00 0.00 80 1013.3
20260502020039 12 0 0.0 0.0 0.00 0.00 0.00 79 1013.1
20260502014545 12 0 0.0 1.6 0.00 0.00 0.00 77 1013.0
20260502013045 12 0 0.0 0.0 0.00 0.00 0.00 76 1013.0
20260502011543 13 0 0.0 1.6 0.00 0.00 0.00 75 1013.1
20260502010048 13 0 0.0 1.6 0.00 0.00 0.00 74 1013.1
20260502004546 13 0 0.0 1.6 0.00 0.00 0.00 73 1012.6
20260502003049 13 221 0.0 1.6 0.00 0.00 0.00 72 1012.5
20260502001552 14 0 0.0 1.6 0.00 0.00 0.00 71 1012.0
20260502000057 14 216 0.0 3.2 0.00 0.00 0.00 69 1012.1
20260501234541 15 207 0.0 6.4 0.00 0.00 0.00 68 1011.8
20260501233046 15 333 0.0 3.2 0.00 0.00 0.00 66 1011.8
20260501231553 16 165 0.0 3.2 0.00 0.00 0.00 65 1011.9
20260501230043 16 0 1.6 6.4 0.00 0.00 0.00 63 1012.0
20260501224542 16 140 0.0 6.4 0.00 0.00 0.00 63 1012.1
20260501223040 16 153 0.0 8.0 0.00 0.00 0.00 62 1011.9
20260501221605 17 240 0.0 6.4 0.00 0.00 0.00 60 1012.0
20260501220054 17 164 1.6 6.4 0.00 0.00 0.00 60 1012.2
20260501214555 17 152 0.0 8.0 0.00 0.00 0.00 60 1012.2
20260501213053 17 196 1.6 8.0 0.00 0.00 0.00 59 1012.2
20260501211550 18 113 0.0 6.4 0.00 0.00 0.00 56 1012.1
20260501210049 18 219 1.6 9.7 0.00 0.00 0.00 55 1012.4
20260501204549 18 110 1.6 8.0 0.00 0.00 0.00 53 1012.1
20260501203052 18 334 1.6 8.0 0.00 0.00 0.00 51 1012.2
20260501201554 18 211 1.6 14.5 0.00 0.00 0.00 50 1012.4
20260501200043 18 40 1.6 14.5 0.00 0.00 0.00 50 1012.8
20260501194542 18 93 0.0 8.0 0.00 0.00 0.00 48 1013.1
20260501193045 18 205 3.2 9.7 0.00 0.00 0.00 48 1013.5
20260501191550 18 138 1.6 9.7 0.00 0.00 0.00 50 1013.8
20260501190050 18 148 0.0 6.4 0.00 0.00 0.00 49 1014.0